Weather in Inino

Russia / Kaluga Oblast     55°13′55″N   36°56′15″E
temp.,
°C
wind,
m/s
gust,
m/s
humid.,
%
clouds,
%
prec.,
mm/h
press.,
hPa
HPBL,
m
16 june, wed
wed1600:00+15nnw23950 0.1 101047
03:00+14nw25960 0.1 101188
06:00+15nnw38940 0.0 1011233
09:00+20n4660100 0.0 1012737
12:00+23nnw455567 0.1 10131663
15:00+24nnw45382 0.1 10142220
18:00+22n45460 0.0 10151215
21:00+15n3870100 0.0 1017148
17 june, thu
thu1700:00+13nne237422 0.0 102047
03:00+11n22795 0.0 102123
06:00+14nne25745 0.0 1023139
09:00+19nne35426 0.0 1024781
12:00+22ne34355 0.0 10241594
15:00+24nne23335 0.0 10241996
18:00+23nne23460 0.0 10241431
21:00+16n117051 0.0 102511
18 june, fri
fri1800:00+14sse11765 0.0 102610
03:00+12wsw11815 0.0 102710
06:00+15w11765 0.0 102844
09:00+22wsw11535 0.0 1028509
12:00+25sw114112 0.0 10271667
15:00+26wsw22393 0.0 10271974
18:00+25wsw23535 0.0 1026781
21:00+18ssw24855 0.0 102783
19 june, sat
sat1900:00+15sw239154 0.0 102856
03:00+14sw23965 0.0 102960
06:00+16sw25852 0.0 1029146
09:00+22wsw23625 0.0 1029665
12:00+25sw234548 0.0 10271420
15:00+27sw334195 0.0 10261701
18:00+25wsw235364 0.0 10261087
21:00+19ssw258489 0.0 102679
20 june, sun
sun2000:00+16sw229399 0.0 102741
03:00+14sw2296100 0.0 102738
06:00+17sw24870 0.0 1027116
09:00+22sw23620 0.0 1026718
12:00+26sw23455 0.0 10251514
15:00+28sw23406 0.0 10231879
18:00+26sw235361 0.0 10231001
21:00+19ssw228540 0.0 102323